�������l�o���
Date,Time,MP-1(��Sv/h),MP-2(��Sv/h),MP-3(��Sv/h),MP-4(��Sv/h),MP-5(��Sv/h),MP-6(��Sv/h),MP-7(��Sv/h),MP-8(��Sv/h),����,����(m/s),���J
2021/01/16,00:00,0.657,0.934,0.599,1.179,0.833,0.375,0.668,0.628,��,0.6,��
2021/01/16,00:10,0.656,0.935,0.601,1.179,0.831,0.376,0.667,0.629,��쐼,2.2,��
2021/01/16,00:20,0.656,0.935,0.600,1.174,0.831,0.376,0.666,0.628,��쓌,2.0,��
2021/01/16,00:30,0.656,0.934,0.601,1.177,0.831,0.376,0.665,0.628,-,CALM,��
2021/01/16,00:40,0.656,0.935,0.602,1.176,0.831,0.375,0.664,0.628,�k�k��,1.2,��
2021/01/16,00:50,0.655,0.935,0.601,1.175,0.832,0.374,0.665,0.628,�k,1.2,��
2021/01/16,01:00,0.654,0.935,0.603,1.176,0.832,0.376,0.665,0.627,�k�k��,1.4,��
2021/01/16,01:10,0.656,0.934,0.600,1.177,0.831,0.375,0.664,0.629,�k,0.9,��
2021/01/16,01:20,0.655,0.935,0.601,1.177,0.834,0.375,0.666,0.628,-,CALM,��
2021/01/16,01:30,0.655,0.934,0.601,1.177,0.832,0.377,0.665,0.629,��,1.2,��
2021/01/16,01:40,0.656,0.935,0.600,1.173,0.832,0.376,0.666,0.628,��쓌,2.0,��
2021/01/16,01:50,0.654,0.933,0.599,1.176,0.832,0.376,0.666,0.627,�쓌,0.9,��
2021/01/16,02:00,0.655,0.933,0.599,1.176,0.833,0.376,0.665,0.629,��쐼,0.9,��
2021/01/16,02:10,0.657,0.936,0.600,1.174,0.834,0.375,0.665,0.628,�k�k��,1.1,��
2021/01/16,02:20,0.656,0.934,0.601,1.178,0.831,0.376,0.665,0.628,�k�k��,2.9,��
2021/01/16,02:30,0.655,0.934,0.601,1.176,0.829,0.377,0.666,0.629,�k�k��,4.2,��
2021/01/16,02:40,0.656,0.934,0.600,1.174,0.831,0.374,0.665,0.628,��,3.5,��
2021/01/16,02:50,0.656,0.934,0.599,1.176,0.832,0.374,0.663,0.628,�쐼,3.2,��
2021/01/16,03:00,0.656,0.933,0.600,1.177,0.832,0.376,0.665,0.628,�k��,0.6,��
2021/01/16,03:10,0.655,0.933,0.601,1.176,0.831,0.376,0.666,0.628,�쐼,3.6,��
2021/01/16,03:20,0.657,0.933,0.600,1.175,0.831,0.377,0.666,0.629,��쐼,4.9,��
2021/01/16,03:30,0.656,0.934,0.600,1.176,0.830,0.376,0.665,0.626,�쓌,1.5,��
2021/01/16,03:40,0.656,0.933,0.600,1.177,0.831,0.375,0.665,0.628,���쓌,1.5,��
2021/01/16,03:50,0.656,0.934,0.600,1.174,0.830,0.375,0.665,0.630,�쓌,2.3,��
2021/01/16,04:00,0.658,0.933,0.600,1.176,0.828,0.376,0.665,0.628,�쓌,2.0,��
2021/01/16,04:10,0.656,0.933,0.601,1.176,0.830,0.375,0.666,0.628,��쓌,2.6,��
2021/01/16,04:20,0.656,0.933,0.601,1.174,0.829,0.375,0.665,0.629,��,2.5,��
2021/01/16,04:30,0.656,0.934,0.599,1.174,0.830,0.374,0.666,0.629,��쓌,2.2,��
2021/01/16,04:40,0.657,0.934,0.600,1.175,0.830,0.375,0.665,0.629,��쓌,2.3,��
2021/01/16,04:50,0.656,0.932,0.600,1.175,0.831,0.375,0.666,0.629,��,3.2,��
2021/01/16,05:00,0.656,0.933,0.599,1.176,0.831,0.375,0.665,0.627,��,3.6,��
2021/01/16,05:10,0.659,0.932,0.600,1.177,0.830,0.374,0.664,0.629,��,4.6,��
2021/01/16,05:20,0.657,0.933,0.599,1.174,0.831,0.375,0.664,0.628,��,4.9,��
2021/01/16,05:30,0.658,0.933,0.600,1.173,0.830,0.374,0.666,0.627,��쓌,4.9,��
2021/01/16,05:40,0.658,0.934,0.601,1.175,0.829,0.375,0.665,0.631,��쓌,6.0,��
2021/01/16,05:50,0.657,0.935,0.601,1.175,0.829,0.376,0.668,0.628,��,7.1,��
2021/01/16,06:00,0.658,0.933,0.601,1.174,0.831,0.375,0.666,0.628,��,6.4,��
2021/01/16,06:10,0.658,0.932,0.601,1.174,0.830,0.375,0.666,0.629,��,6.8,��
2021/01/16,06:20,0.657,0.931,0.598,1.174,0.832,0.376,0.666,0.628,��,7.9,��
2021/01/16,06:30,0.657,0.933,0.602,1.175,0.831,0.376,0.664,0.628,��,7.5,��
2021/01/16,06:40,0.658,0.933,0.601,1.174,0.829,0.375,0.666,0.628,��,7.3,��
2021/01/16,06:50,0.657,0.933,0.602,1.177,0.830,0.374,0.666,0.627,��,6.9,��
2021/01/16,07:00,0.659,0.933,0.600,1.178,0.830,0.376,0.663,0.629,��,7.9,��
2021/01/16,07:10,0.658,0.931,0.601,1.175,0.831,0.375,0.665,0.628,��,8.2,��
2021/01/16,07:20,0.658,0.933,0.600,1.176,0.830,0.375,0.666,0.629,��쐼,7.8,��
2021/01/16,07:30,0.659,0.932,0.601,1.176,0.831,0.375,0.667,0.629,��,7.5,��
2021/01/16,07:40,0.657,0.936,0.601,1.177,0.829,0.376,0.667,0.628,��,8.3,��
2021/01/16,07:50,0.659,0.932,0.601,1.177,0.828,0.376,0.667,0.628,��,8.2,��
2021/01/16,08:00,0.658,0.934,0.602,1.178,0.832,0.376,0.666,0.628,��,7.4,��
2021/01/16,08:10,0.659,0.934,0.600,1.176,0.831,0.376,0.667,0.630,��,7.0,��
2021/01/16,08:20,0.657,0.935,0.600,1.180,0.829,0.375,0.666,0.630,��,7.7,��
2021/01/16,08:30,0.660,0.929,0.601,1.177,0.832,0.375,0.668,0.631,��,7.7,��
2021/01/16,08:40,0.660,0.933,0.603,1.176,0.832,0.376,0.668,0.629,��,8.4,��
2021/01/16,08:50,0.662,0.932,0.599,1.178,0.830,0.375,0.668,0.630,��,7.8,��
2021/01/16,09:00,0.660,0.933,0.602,1.176,0.832,0.376,0.668,0.630,��,6.4,��
2021/01/16,09:10,0.663,0.932,0.601,1.176,0.829,0.378,0.670,0.629,��,5.3,��
2021/01/16,09:20,0.664,0.934,0.602,1.178,0.832,0.377,0.669,0.630,��쐼,4.2,��
2021/01/16,09:30,0.663,0.935,0.602,1.176,0.832,0.377,0.668,0.630,��,5.3,��
2021/01/16,09:40,0.662,0.935,0.603,1.176,0.832,0.377,0.668,0.630,��,4.5,��
2021/01/16,09:50,0.664,0.932,0.604,1.179,0.832,0.377,0.666,0.629,��,3.3,��
2021/01/16,10:00,0.662,0.934,0.603,1.176,0.833,0.378,0.667,0.631,��,3.9,��
2021/01/16,10:10,0.663,0.932,0.602,1.180,0.834,0.378,0.668,0.630,��,2.8,��
2021/01/16,10:20,0.663,0.933,0.604,1.177,0.833,0.378,0.668,0.631,��쐼,3.7,��
2021/01/16,10:30,0.664,0.932,0.604,1.180,0.836,0.377,0.666,0.630,�쐼,3.0,��
2021/01/16,10:40,0.664,0.932,0.604,1.179,0.836,0.379,0.667,0.631,��,7.5,��
2021/01/16,10:50,0.661,0.930,0.605,1.179,0.833,0.376,0.667,0.632,���k��,5.3,��
2021/01/16,11:00,0.661,0.931,0.604,1.176,0.834,0.376,0.667,0.630,�k,5.4,��
2021/01/16,11:10,0.662,0.934,0.605,1.179,0.835,0.375,0.667,0.630,�k�k��,3.9,��
2021/01/16,11:20,0.660,0.932,0.604,1.179,0.834,0.375,0.665,0.631,�k��,5.2,��
2021/01/16,11:30,0.662,0.932,0.605,1.178,0.833,0.377,0.667,0.631,�k��,7.9,��
2021/01/16,11:40,0.662,0.934,0.604,1.178,0.835,0.377,0.666,0.630,�k��,8.4,��
2021/01/16,11:50,0.664,0.931,0.605,1.179,0.834,0.377,0.667,0.632,�k��,7.6,��
2021/01/16,12:00,0.663,0.931,0.604,1.180,0.834,0.378,0.667,0.630,�k��,7.6,��
2021/01/16,12:10,0.664,0.934,0.603,1.180,0.835,0.379,0.668,0.630,���k��,6.6,��
2021/01/16,12:20,0.664,0.938,0.605,1.180,0.834,0.377,0.667,0.631,���k��,6.8,��
2021/01/16,12:30,0.664,0.934,0.605,1.179,0.837,0.377,0.668,0.631,���쐼,2.0,��
2021/01/16,12:40,0.662,0.937,0.605,1.181,0.836,0.378,0.669,0.631,�k��,1.2,��
2021/01/16,12:50,0.664,0.939,0.604,1.179,0.837,0.379,0.668,0.631,��,2.8,��
2021/01/16,13:00,0.663,0.939,0.604,1.180,0.836,0.378,0.668,0.630,�쐼,2.6,��
2021/01/16,13:10,0.662,0.939,0.603,1.181,0.837,0.379,0.668,0.632,-,CALM,��
2021/01/16,13:20,0.662,0.936,0.603,1.182,0.835,0.378,0.669,0.631,��,2.3,��
2021/01/16,13:30,0.662,0.935,0.605,1.180,0.837,0.379,0.669,0.632,��,5.4,��
2021/01/16,13:40,0.662,0.936,0.606,1.182,0.836,0.378,0.667,0.630,��,7.0,��
2021/01/16,13:50,0.664,0.937,0.603,1.181,0.835,0.378,0.669,0.632,���k��,7.7,�L
2021/01/16,14:00,0.663,0.939,0.606,1.179,0.837,0.377,0.669,0.631,���k��,6.5,�L
2021/01/16,14:10,0.663,0.936,0.604,1.184,0.836,0.379,0.667,0.632,���k��,7.8,�L
2021/01/16,14:20,0.663,0.938,0.603,1.183,0.837,0.378,0.668,0.631,���k��,6.6,�L
2021/01/16,14:30,0.664,0.937,0.606,1.183,0.836,0.380,0.667,0.632,���k��,5.6,�L
2021/01/16,14:40,0.664,0.938,0.605,1.181,0.837,0.377,0.668,0.632,�k�k��,8.0,�L
2021/01/16,14:50,0.663,0.937,0.607,1.185,0.837,0.379,0.669,0.632,�k,11.4,�L
2021/01/16,15:00,0.664,0.940,0.606,1.183,0.839,0.380,0.668,0.632,�k,10.2,�L
2021/01/16,15:10,0.661,0.939,0.605,1.183,0.837,0.378,0.670,0.633,�k�k��,7.6,�L
2021/01/16,15:20,0.663,0.941,0.606,1.186,0.837,0.378,0.668,0.630,�k�k��,5.2,�L
2021/01/16,15:30,0.663,0.939,0.608,1.185,0.840,0.379,0.668,0.631,�k,4.4,�L
2021/01/16,15:40,0.663,0.942,0.608,1.181,0.839,0.381,0.669,0.632,�k�k��,3.9,�L
2021/01/16,15:50,0.665,0.941,0.606,1.184,0.839,0.380,0.669,0.631,�k��,7.2,�L
2021/01/16,16:00,0.663,0.938,0.607,1.185,0.839,0.380,0.670,0.631,�k��,8.6,�L
2021/01/16,16:10,0.665,0.941,0.606,1.183,0.839,0.380,0.668,0.631,�k��,7.6,�L
2021/01/16,16:20,0.662,0.943,0.606,1.183,0.837,0.380,0.667,0.631,���k��,7.0,�L
2021/01/16,16:30,0.663,0.941,0.606,1.184,0.836,0.380,0.668,0.632,�k��,6.5,�L
2021/01/16,16:40,0.662,0.940,0.606,1.185,0.836,0.378,0.667,0.631,�k��,4.8,��
2021/01/16,16:50,0.664,0.938,0.605,1.181,0.837,0.377,0.668,0.631,�k��,6.0,�L
2021/01/16,17:00,0.661,0.940,0.605,1.185,0.838,0.381,0.667,0.632,�k��,6.7,�L
2021/01/16,17:10,0.661,0.940,0.606,1.183,0.840,0.381,0.670,0.631,�k��,5.2,�L
2021/01/16,17:20,0.666,0.943,0.609,1.187,0.842,0.384,0.671,0.634,�k��,3.5,�L
2021/01/16,17:30,0.671,0.947,0.613,1.191,0.844,0.388,0.672,0.634,���k��,3.0,�L
2021/01/16,17:40,0.670,0.948,0.615,1.190,0.843,0.386,0.671,0.633,���k��,3.8,�L
2021/01/16,17:50,0.668,0.945,0.612,1.189,0.838,0.385,0.670,0.633,���k��,3.4,��
2021/01/16,18:00,0.668,0.945,0.609,1.189,0.839,0.382,0.671,0.632,�k��,3.2,��
2021/01/16,18:10,0.666,0.942,0.611,1.187,0.839,0.382,0.671,0.632,�k��,2.3,��
2021/01/16,18:20,0.664,0.941,0.607,1.184,0.836,0.381,0.671,0.630,�k�k��,4.9,��
2021/01/16,18:30,0.663,0.939,0.607,1.184,0.836,0.382,0.670,0.631,�k�k��,7.4,��
2021/01/16,18:40,0.662,0.938,0.608,1.185,0.838,0.379,0.669,0.630,�k��,8.5,��
2021/01/16,18:50,0.662,0.935,0.603,1.182,0.836,0.379,0.670,0.630,�k��,8.0,��
2021/01/16,19:00,0.660,0.938,0.603,1.184,0.838,0.378,0.669,0.630,�k��,7.4,��
2021/01/16,19:10,0.660,0.937,0.604,1.183,0.836,0.378,0.670,0.629,�k��,8.9,��
2021/01/16,19:20,0.659,0.936,0.603,1.181,0.835,0.377,0.670,0.630,�k�k��,8.4,��
2021/01/16,19:30,0.661,0.938,0.603,1.182,0.836,0.377,0.669,0.629,�k�k��,7.5,��
2021/01/16,19:40,0.657,0.937,0.603,1.181,0.836,0.377,0.668,0.629,�k�k��,7.3,��
2021/01/16,19:50,0.660,0.937,0.600,1.181,0.835,0.378,0.667,0.631,�k��,8.6,��
2021/01/16,20:00,0.659,0.937,0.601,1.183,0.834,0.378,0.670,0.629,�k�k��,7.7,��
2021/01/16,20:10,0.657,0.936,0.601,1.182,0.833,0.378,0.669,0.630,�k�k��,7.8,��
2021/01/16,20:20,0.660,0.935,0.603,1.183,0.834,0.377,0.668,0.629,�k�k��,7.2,��
2021/01/16,20:30,0.659,0.936,0.600,1.180,0.834,0.377,0.669,0.630,�k�k��,6.7,��
2021/01/16,20:40,0.659,0.933,0.600,1.179,0.836,0.378,0.668,0.630,�k�k��,5.4,��
2021/01/16,20:50,0.657,0.935,0.602,1.182,0.832,0.376,0.669,0.630,�k,5.0,��
2021/01/16,21:00,0.659,0.934,0.600,1.182,0.834,0.377,0.667,0.630,�k,5.4,��
2021/01/16,21:10,0.658,0.936,0.602,1.180,0.834,0.377,0.668,0.630,�k,6.0,��
2021/01/16,21:20,0.659,0.937,0.600,1.181,0.834,0.376,0.668,0.631,�k,6.6,��
2021/01/16,21:30,0.657,0.936,0.599,1.180,0.833,0.377,0.668,0.630,�k,4.7,��
2021/01/16,21:40,0.658,0.937,0.600,1.182,0.833,0.376,0.669,0.630,�k,6.5,��
2021/01/16,21:50,0.658,0.937,0.599,1.181,0.834,0.376,0.669,0.629,�k,6.2,��
2021/01/16,22:00,0.657,0.934,0.601,1.180,0.835,0.376,0.668,0.630,�k�k��,4.5,��
2021/01/16,22:10,0.657,0.935,0.601,1.180,0.835,0.376,0.668,0.629,���k��,3.3,��
2021/01/16,22:20,0.656,0.935,0.601,1.181,0.833,0.377,0.668,0.628,�k��,3.1,��
2021/01/16,22:30,0.659,0.936,0.603,1.179,0.833,0.377,0.668,0.629,�k��,3.7,��
2021/01/16,22:40,0.658,0.935,0.600,1.181,0.834,0.376,0.667,0.629,���k��,3.6,��
2021/01/16,22:50,0.657,0.936,0.602,1.181,0.834,0.375,0.669,0.630,���k��,8.5,��
2021/01/16,23:00,0.658,0.935,0.602,1.181,0.834,0.375,0.668,0.630,���k��,9.8,��
2021/01/16,23:10,0.659,0.935,0.601,1.180,0.834,0.377,0.668,0.629,���k��,10.6,��
2021/01/16,23:20,0.658,0.936,0.600,1.180,0.836,0.375,0.668,0.631,���k��,10.3,��
2021/01/16,23:30,0.658,0.937,0.600,1.180,0.834,0.377,0.667,0.631,���k��,9.9,��
2021/01/16,23:40,0.658,0.938,0.600,1.181,0.836,0.374,0.669,0.630,���k��,8.8,��
2021/01/16,23:50,0.657,0.938,0.599,1.183,0.833,0.375,0.667,0.631,���k��,10.3,��
